Weather History for KGCC - December, 2011

Change the Weather History Date:

Friday, December 30, 2011

  Actual Average Record
Temperature  
Mean Temperature 34 °F 25 °F  
Max Temperature 47 °F 36 °F 54 °F (1929)
Min Temperature 21 °F 13 °F -33 °F (1990)
Degree Days  
Heating Degree Days 31 40  
Month to date heating degree days 1142 1225  
Since 1 July heating degree days 2787 3100  
Cooling Degree Days 0 0  
Month to date cooling degree days 0 0  
Year to date cooling degree days 561 502  
Moisture  
Dew Point 24 °F    
Average Humidity 61    
Maximum Humidity 77    
Minimum Humidity 45    
Precipitation  
Precipitation 0.00 in 0.01 in 0.20 in (1931)
Month to date precipitation 0.42 0.39  
Year to date precipitation 17.39 13.88  
Sea Level Pressure  
Sea Level Pressure 29.69 in    
Wind  
Wind Speed 14 mph (SSW)    
Max Wind Speed 25 mph    
Max Gust Speed 33 mph    
Visibility 10 miles    
Events      
T = Trace of Precipitation, MM = Missing Value Source: NWS Daily Summary

Daily Weather History Graph

Daily Weather History Graph

Search for Another Location

Airport or City:

Trip Planner

Search our weather history database for the weather conditions in past years. The results will help you decide how hot, cold, wet, or windy it might be!

Date:

Astronomy

Dec. 30, 2011 Rise Set
Actual Time 7:37 AM MST 4:31 PM MST
Civil Twilight 7:04 AM MST 5:04 PM MST
Nautical Twilight 6:27 AM MST 5:41 PM MST
Astronomical Twilight 5:52 AM MST 6:16 PM MST
Moon 10:43 AM MST 11:25 PM MST
Length of Visible Light 10h 00m
Length of Day
8h 53m
Waxing Crescent, 36% of the Moon is Illuminated
Dec 30
Waxing Crescent
Dec 31
First Quarter
Jan 9
Full
Jan 16
Last Quarter
Jan 23
New

Hourly Weather History & Observations

Time (MST) Temp. Windchill Dew Point Humidity Pressure Visibility Wind Dir Wind Speed Gust Speed Precip Events Conditions
12:53 AM 21.0 °F 16.2 °F 16.0 °F 81% 29.93 in 10.0 mi South 3.5 mph - N/A   Clear
1:53 AM 23.0 °F 17.0 °F 16.0 °F 74% 29.92 in 10.0 mi SW 4.6 mph - N/A   Clear
2:53 AM 24.1 °F - 16.0 °F 71% 29.94 in 10.0 mi Calm Calm - N/A   Clear
3:53 AM 24.1 °F 19.7 °F 16.0 °F 71% 29.92 in 10.0 mi SW 3.5 mph - N/A   Clear
4:53 AM 27.0 °F 17.3 °F 16.0 °F 63% 29.89 in 10.0 mi South 10.4 mph - N/A   Clear
5:53 AM 26.1 °F 15.6 °F 15.1 °F 63% 29.88 in 10.0 mi South 11.5 mph - N/A   Clear
6:53 AM 25.0 °F 14.8 °F 15.1 °F 66% 29.86 in 10.0 mi South 10.4 mph - N/A   Clear
7:53 AM 26.1 °F 16.8 °F 14.0 °F 60% 29.84 in 10.0 mi SSE 9.2 mph - N/A   Clear
8:53 AM 32.0 °F 21.6 °F 17.6 °F 55% 29.74 in 10.0 mi SSE 15.0 mph - N/A   Clear
9:53 AM 36.0 °F 26.7 °F 21.0 °F 55% 29.78 in 10.0 mi South 15.0 mph - N/A   Clear
10:53 AM 44.6 °F 37.8 °F 24.8 °F 46% 29.70 in 10.0 mi SSW 15.0 mph 24.2 mph N/A   Clear
11:53 AM 45.0 °F 37.1 °F 27.0 °F 49% 29.68 in 10.0 mi SW 19.6 mph 29.9 mph N/A   Clear
12:53 PM 45.0 °F 37.4 °F 28.9 °F 53% 29.67 in 10.0 mi SSW 18.4 mph 27.6 mph N/A   Clear
1:53 PM 45.0 °F 37.9 °F 30.0 °F 56% 29.64 in 10.0 mi SSW 16.1 mph 25.3 mph N/A   Clear
2:53 PM 45.0 °F 38.2 °F 30.0 °F 56% 29.62 in 10.0 mi SW 15.0 mph - N/A   Clear
3:53 PM 46.9 °F - 30.9 °F 54% 29.61 in 10.0 mi SW 24.2 mph 33.4 mph N/A   Clear
4:53 PM 46.0 °F 39.0 °F 30.9 °F 56% 29.59 in 10.0 mi SW 17.3 mph 27.6 mph N/A   Clear
5:53 PM 46.0 °F 38.5 °F 32.0 °F 58% 29.59 in 10.0 mi SW 19.6 mph 27.6 mph N/A   Mostly Cloudy
6:53 PM 45.0 °F 37.6 °F 30.9 °F 58% 29.58 in 10.0 mi SW 17.3 mph 24.2 mph N/A   Overcast
7:53 PM 46.0 °F 39.3 °F 30.0 °F 54% 29.55 in 10.0 mi SW 16.1 mph - N/A   Mostly Cloudy
8:53 PM 46.0 °F 38.3 °F 30.0 °F 54% 29.49 in 10.0 mi SW 20.7 mph 27.6 mph N/A   Partly Cloudy
9:53 PM 44.1 °F 35.2 °F 30.9 °F 60% 29.47 in 10.0 mi SW 23.0 mph 31.1 mph N/A   Clear
10:53 PM 46.0 °F 38.0 °F 28.0 °F 50% 29.42 in 10.0 mi WSW 21.9 mph 29.9 mph N/A   Clear
11:34 PM 42.8 °F 36.6 °F 28.4 °F 57% 29.49 in 10.0 mi West 11.5 mph - N/A   Partly Cloudy
11:53 PM 43.0 °F 34.5 °F 28.0 °F 56% 29.49 in 10.0 mi WNW 19.6 mph 31.1 mph N/A   Mostly Cloudy